sat.trackr.live / text

‹ back to catalog

STARLINK-30961

NORAD 58445 · 2023-183J

PAYLOAD ACTIVE UNKNOWN

§ Identity

Operator
Country
US
Launch date
2023-11-28
Launch site
AFETR
Launch vehicle
Mass (kg)
RCS (m²)

Purposes: comms

External: N2YO · Heavens-Above · Gunter

§ Orbital elements

Epoch: 2026-09-20T07:50:07.201536Z

Period
94.27 min
Inclination
43.0044°
Eccentricity
0.0001426
Mean motion
15.27576428 rev/d
Perigee alt
482.1 km
Apogee alt
484.0 km
Semi-major
6,861.2 km
B*
8.8107e-6
RAAN
22.2234°
Arg perigee
263.2009°
Mean anomaly
96.8681°
Rev number
15,650

§ Raw data

STARLINK-309611 58445U 23183J   26263.32647224 -.00000020  00000+0  88107-5 0  99932 58445  43.0044  22.2234 0001426 263.2009  96.8681 15.27576428156505

JSON: /api/v1/satellites/58445 · /tle

For live sub-satellite position, see the globe view (requires WebGL).

§ Visibility from observer

Set your observer location to see the next 7 days of passes ≥ 10°. The values pass through the URL so the page stays shareable.

No JS? Fill the form by hand. The geolocation button needs JavaScript.